QXE523 TFFR-TFFJ

Flight info

Callsign QXE523
Flight time N/A
Altitude 16000
Route BIMBO2F BIMBO A517 ZPATA
Aircraft DH8D/M-SDE2E3FGRY/H

Departure

Time 2026-04-30 19:21
Airport Maryse Condé International Airport (TFFR)

Arrival

Time N/A
Airport St. Jean Airport (TFFJ)
Time Latitude Longitude Altitude Speed Heading
2026-04-30 19:01 16.26912 -61.52101 46 ft 0 kts 11°
2026-04-30 19:01 16.26866 -61.52301 40 ft 0 kts 11°
2026-04-30 19:02 16.26842 -61.52283 41 ft 0 kts 11°
2026-04-30 19:11 16.26812 -61.52149 44 ft 0 kts 11°
2026-04-30 19:17 16.26734 -61.52154 44 ft 2 kts 342°
2026-04-30 19:17 16.26743 -61.52204 43 ft 9 kts 272°
2026-04-30 19:18 16.26752 -61.52345 39 ft 12 kts 274°
2026-04-30 19:18 16.26762 -61.52471 37 ft 12 kts 278°
2026-04-30 19:18 16.26783 -61.52569 36 ft 20 kts 286°
2026-04-30 19:19 16.26819 -61.52739 34 ft 23 kts 281°
2026-04-30 19:19 16.26835 -61.52899 33 ft 20 kts 239°
2026-04-30 19:19 16.26614 -61.52967 33 ft 13 kts 190°
2026-04-30 19:20 16.26501 -61.52992 33 ft 10 kts 176°
2026-04-30 19:20 16.26492 -61.52980 34 ft 0 kts 102°
2026-04-30 19:20 16.26382 -61.52391 40 ft 118 kts 101°
2026-04-30 19:21 16.26182 -61.51420 218 ft 148 kts 105°
2026-04-30 19:21 16.25678 -61.49289 1410 ft 152 kts 102°
2026-04-30 19:22 16.25207 -61.46859 2149 ft 186 kts 99°
2026-04-30 19:22 16.25515 -61.43006 3581 ft 197 kts 37°
2026-04-30 19:23 16.29061 -61.44736 4850 ft 217 kts 309°
2026-04-30 19:24 16.30884 -61.47232 5805 ft 218 kts 307°
2026-04-30 19:24 16.31780 -61.48517 6251 ft 220 kts 307°
2026-04-30 19:24 16.33552 -61.51125 7165 ft 222 kts 306°
2026-04-30 19:25 16.36195 -61.55114 8522 ft 224 kts 305°
2026-04-30 19:26 16.37962 -61.57818 9370 ft 225 kts 305°
2026-04-30 19:26 16.39735 -61.60530 10139 ft 229 kts 304°
2026-04-30 19:26 16.40634 -61.61909 10617 ft 231 kts 305°
2026-04-30 19:27 16.42416 -61.64649 11852 ft 223 kts 304°
2026-04-30 19:27 16.44139 -61.67300 13006 ft 221 kts 304°
2026-04-30 19:28 16.45003 -61.68630 13529 ft 223 kts 303°
2026-04-30 19:28 16.46749 -61.71320 14572 ft 227 kts 302°
2026-04-30 19:29 16.48512 -61.74040 15594 ft 232 kts 301°
2026-04-30 19:29 16.49454 -61.75498 15844 ft 249 kts 301°
2026-04-30 19:30 16.52743 -61.80606 15976 ft 314 kts 302°
2026-04-30 19:30 16.55308 -61.84580 15969 ft 344 kts 302°
2026-04-30 19:31 16.58002 -61.88753 15955 ft 347 kts 302°
2026-04-30 19:31 16.59351 -61.90841 15962 ft 348 kts 302°